Location: *
(51.0333°S, 178.4667°E)
Time: 06:33:17
(UTC+00:00)

STARLINK-42 - Pass Details

Date: 15 November 2019
Orbit: 529 x 530 km, 53.0° (Epoch: 10 December)

Event Time Altitude Azimuth Distance (km) Brightness Sun altitude
Rises 09:51:01 0° 261° (W) 2,683 7.7 -15.7°
Reaches altitude 10° 09:53:15 10° 258° (WSW) 1,793 6.8 -15.9°
Maximum altitude 09:57:18 67° 175° (S) 587 3.9 -16.2°
Enters shadow 10:01:22 10° 91° (E) 1,793 6.0 -16.5°
